TimeEDT,TemperatureF,Dew PointF,Humidity,Sea Level PressureIn,VisibilityMPH,Wind Direction,Wind SpeedMPH,Gust SpeedMPH,PrecipitationIn,Events,Conditions,WindDirDegrees,DateUTC
12:53 AM,73.9,66.9,79,29.94,10.0,NW,3.5,-,N/A,,Clear,320,2012-09-07 04:53:00
1:53 AM,73.9,66.9,79,29.95,10.0,Calm,Calm,-,N/A,,Clear,0,2012-09-07 05:53:00
2:53 AM,73.0,69.1,87,29.93,10.0,North,5.8,-,N/A,,Clear,360,2012-09-07 06:53:00
3:53 AM,73.0,68.0,84,29.92,10.0,NE,8.1,-,N/A,,Clear,40,2012-09-07 07:53:00
4:53 AM,71.1,68.0,90,29.93,10.0,East,3.5,-,N/A,,Clear,100,2012-09-07 08:53:00
5:53 AM,71.1,68.0,90,29.94,10.0,NE,6.9,-,N/A,,Clear,40,2012-09-07 09:53:00
6:53 AM,71.1,68.0,90,29.95,10.0,NE,5.8,-,N/A,,Clear,50,2012-09-07 10:53:00
7:53 AM,72.0,68.0,87,29.98,10.0,NE,8.1,-,N/A,,Clear,50,2012-09-07 11:53:00
8:53 AM,75.0,69.1,82,29.99,10.0,NE,5.8,-,N/A,,Clear,50,2012-09-07 12:53:00
9:53 AM,78.1,69.1,74,29.98,10.0,ENE,9.2,-,N/A,,Clear,70,2012-09-07 13:53:00
10:53 AM,81.0,70.0,69,29.99,10.0,ENE,6.9,-,N/A,,Clear,60,2012-09-07 14:53:00
11:53 AM,82.9,70.0,65,29.99,10.0,Variable,4.6,-,N/A,,Scattered Clouds,0,2012-09-07 15:53:00
12:53 PM,84.9,69.1,59,29.97,10.0,ENE,4.6,-,N/A,,Partly Cloudy,60,2012-09-07 16:53:00
1:53 PM,86.0,69.1,57,29.95,10.0,East,5.8,-,N/A,,Mostly Cloudy,90,2012-09-07 17:53:00
2:53 PM,84.0,71.1,65,29.93,10.0,ESE,8.1,-,N/A,,Scattered Clouds,110,2012-09-07 18:53:00
3:53 PM,84.0,71.1,65,29.91,10.0,SE,6.9,-,N/A,,Mostly Cloudy,140,2012-09-07 19:53:00
4:53 PM,86.0,71.1,61,29.90,10.0,South,8.1,-,N/A,,Scattered Clouds,170,2012-09-07 20:53:00
5:53 PM,86.0,71.1,61,29.89,10.0,ESE,5.8,-,N/A,,Clear,110,2012-09-07 21:53:00
6:53 PM,84.0,71.1,65,29.88,10.0,SSE,6.9,-,N/A,,Partly Cloudy,160,2012-09-07 22:53:00
7:53 PM,81.0,71.1,72,29.87,10.0,SE,5.8,-,N/A,,Clear,140,2012-09-07 23:53:00
8:53 PM,79.0,71.1,77,29.88,10.0,SE,3.5,-,N/A,,Clear,140,2012-09-08 00:53:00
9:53 PM,77.0,71.1,82,29.87,10.0,SE,3.5,-,N/A,,Clear,140,2012-09-08 01:53:00
10:53 PM,77.0,70.0,79,29.89,10.0,Calm,Calm,-,N/A,,Clear,0,2012-09-08 02:53:00
11:53 PM,77.0,71.1,82,29.87,10.0,Calm,Calm,-,N/A,,Clear,0,2012-09-08 03:53:00